Location: Cerda�ola
(41.4919°N, 2.1403°E)
Time: 02:41:48
(UTC+00:00)

STARLINK-1096 - Pass Details

Date: 29 March 2020
Orbit: 548 x 551 km, 53.0° (Epoch: 31 May)

Event Time Altitude Azimuth Distance (km) Brightness Sun altitude
Rises 20:28:04 0° 304° (NW) 2,719 8.6 -24.6°
Reaches altitude 10° 20:30:21 10° 299° (WNW) 1,822 7.3 -25.0°
Enters shadow 20:33:49 46° 251° (WSW) 740 4.4 -25.5°
